FDX7323 KLIT-KIAH

Flight info

Callsign FDX7323
Flight time 1h 2m
Altitude 36000
Route LESME URH CVE GUSHR3
Aircraft B77L/H-SDE1E2E3FGHIJ2J3J4J5M1RWXY/LB1D1

Departure

Time 2026-04-21 22:32
Airport Bill & Hillary Clinton National Airport/Adams Field (KLIT)

Arrival

Time 2026-04-21 23:34
Airport George Bush Intercontinental Airport (KIAH)
Time Latitude Longitude Altitude Speed Heading
2026-04-21 22:31 34.73551 -92.21943 275 ft 14 kts 35°
2026-04-21 22:31 34.73635 -92.21839 274 ft 22 kts 46°
2026-04-21 22:31 34.73743 -92.21754 274 ft 12 kts 355°
2026-04-21 22:31 34.73792 -92.21830 271 ft 8 kts 255°
2026-04-21 22:32 34.73657 -92.22016 270 ft 72 kts 226°
2026-04-21 22:32 34.73091 -92.22741 316 ft 155 kts 228°
2026-04-21 22:32 34.72288 -92.23774 1055 ft 178 kts 228°
2026-04-21 22:32 34.71401 -92.24899 1896 ft 195 kts 227°
2026-04-21 22:33 34.70444 -92.26247 2279 ft 229 kts 228°
2026-04-21 22:33 34.69385 -92.27770 3027 ft 244 kts 228°
2026-04-21 22:33 34.65322 -92.33597 7443 ft 236 kts 226°
2026-04-21 22:33 34.60819 -92.39994 10796 ft 267 kts 227°
2026-04-21 22:34 34.55496 -92.47510 13683 ft 321 kts 229°
2026-04-21 22:34 34.49144 -92.56464 16238 ft 379 kts 230°
2026-04-21 22:34 34.41948 -92.66571 19373 ft 407 kts 230°
2026-04-21 22:34 34.33630 -92.76314 22428 ft 425 kts 223°
2026-04-21 22:35 34.27029 -92.83360 24322 ft 442 kts 223°
2026-04-21 22:35 34.24714 -92.85852 24830 ft 448 kts 223°
2026-04-21 22:35 34.22375 -92.88378 25381 ft 453 kts 223°
2026-04-21 22:35 34.20018 -92.90927 25999 ft 457 kts 223°
2026-04-21 22:36 34.15261 -92.96070 27247 ft 462 kts 223°
2026-04-21 22:36 34.12852 -92.98672 27821 ft 466 kts 223°
2026-04-21 22:36 34.10462 -93.01251 28341 ft 470 kts 223°
2026-04-21 22:37 34.07975 -93.03932 28853 ft 474 kts 223°
2026-04-21 22:37 34.05534 -93.06561 29331 ft 478 kts 223°
2026-04-21 22:37 34.03037 -93.09247 29821 ft 482 kts 223°
2026-04-21 22:37 34.00529 -93.11944 30292 ft 485 kts 223°
2026-04-21 22:38 33.98011 -93.14650 30820 ft 484 kts 223°
2026-04-21 22:38 33.95505 -93.17339 31534 ft 478 kts 223°
2026-04-21 22:38 33.93027 -93.19995 32289 ft 472 kts 223°
2026-04-21 22:38 33.90590 -93.22605 32981 ft 467 kts 223°
2026-04-21 22:39 33.88199 -93.25165 33596 ft 464 kts 223°
2026-04-21 22:39 33.85791 -93.27741 34192 ft 461 kts 223°
2026-04-21 22:39 33.83400 -93.30298 34668 ft 459 kts 223°
2026-04-21 22:39 33.81014 -93.32849 35041 ft 460 kts 223°
2026-04-21 22:40 33.78618 -93.35408 35394 ft 460 kts 223°
2026-04-21 22:40 33.76219 -93.37967 35768 ft 460 kts 224°
2026-04-21 22:40 33.73825 -93.40520 36169 ft 459 kts 224°
2026-04-21 22:40 33.71429 -93.43072 36236 ft 463 kts 224°
2026-04-21 22:41 33.66650 -93.48157 36241 ft 459 kts 224°
2026-04-21 22:41 33.61881 -93.53222 36251 ft 457 kts 224°
2026-04-21 22:42 33.57117 -93.58274 36256 ft 456 kts 224°
2026-04-21 22:42 33.52346 -93.63326 36262 ft 457 kts 224°
2026-04-21 22:43 33.47567 -93.68380 36260 ft 458 kts 224°
2026-04-21 22:43 33.42779 -93.73435 36261 ft 459 kts 224°
2026-04-21 22:44 33.37978 -93.78495 36266 ft 460 kts 224°
2026-04-21 22:44 33.33198 -93.83526 36257 ft 460 kts 224°
2026-04-21 22:45 33.29193 -93.87735 36263 ft 461 kts 224°
2026-04-21 22:45 33.24368 -93.92799 36264 ft 461 kts 224°
2026-04-21 22:46 33.19552 -93.97845 36266 ft 460 kts 224°
2026-04-21 22:46 33.14734 -94.02886 36268 ft 460 kts 224°
2026-04-21 22:47 33.09942 -94.07893 36280 ft 459 kts 224°
2026-04-21 22:47 33.05138 -94.12904 36276 ft 459 kts 224°
2026-04-21 22:48 33.00332 -94.17910 36271 ft 458 kts 224°
2026-04-21 22:48 32.95535 -94.22898 36269 ft 457 kts 225°
2026-04-21 22:49 32.90748 -94.27869 36263 ft 456 kts 225°
2026-04-21 22:49 32.85973 -94.32820 36260 ft 454 kts 225°
2026-04-21 22:50 32.81205 -94.37757 36249 ft 453 kts 225°
2026-04-21 22:50 32.76486 -94.42636 36247 ft 452 kts 225°
2026-04-21 22:51 32.71736 -94.47540 36242 ft 452 kts 225°
2026-04-21 22:51 32.66984 -94.52438 36246 ft 451 kts 225°
2026-04-21 22:52 32.62247 -94.57314 36244 ft 450 kts 225°
2026-04-21 22:52 32.57514 -94.62179 36234 ft 450 kts 225°
2026-04-21 22:53 32.52781 -94.67037 36240 ft 449 kts 226°
2026-04-21 22:53 32.48084 -94.71851 36238 ft 449 kts 226°
2026-04-21 22:54 32.43365 -94.76680 36236 ft 448 kts 226°
2026-04-21 22:54 32.38644 -94.81505 36241 ft 448 kts 226°
2026-04-21 22:55 32.33920 -94.86325 36236 ft 448 kts 226°
2026-04-21 22:55 32.29199 -94.91135 36234 ft 447 kts 226°
2026-04-21 22:56 32.24483 -94.95934 36228 ft 445 kts 226°
2026-04-21 22:56 32.19905 -95.00575 36109 ft 427 kts 226°
2026-04-21 22:57 32.15485 -95.05050 35977 ft 408 kts 227°
2026-04-21 22:57 32.11266 -95.09323 35857 ft 391 kts 227°
2026-04-21 22:58 32.07210 -95.13428 35733 ft 376 kts 227°
2026-04-21 22:58 32.03313 -95.17371 35501 ft 364 kts 227°
2026-04-21 22:59 32.01397 -95.19310 35272 ft 361 kts 228°
2026-04-21 22:59 31.99495 -95.21233 35032 ft 359 kts 228°
2026-04-21 22:59 31.97603 -95.23145 34797 ft 357 kts 228°
2026-04-21 22:59 31.95748 -95.25018 34552 ft 355 kts 228°
2026-04-21 23:00 31.93880 -95.26902 34347 ft 353 kts 228°
2026-04-21 23:00 31.92034 -95.28763 34107 ft 351 kts 228°
2026-04-21 23:00 31.90172 -95.30638 33834 ft 349 kts 228°
2026-04-21 23:00 31.88327 -95.32495 33564 ft 348 kts 228°
2026-04-21 23:01 31.86494 -95.34339 33315 ft 346 kts 228°
2026-04-21 23:01 31.84669 -95.36174 33068 ft 344 kts 228°
2026-04-21 23:01 31.82850 -95.38001 32812 ft 343 kts 228°
2026-04-21 23:01 31.81039 -95.39819 32575 ft 341 kts 228°
2026-04-21 23:02 31.79263 -95.41602 32328 ft 339 kts 228°
2026-04-21 23:02 31.77470 -95.43400 32086 ft 338 kts 228°
2026-04-21 23:02 31.75686 -95.45188 31860 ft 336 kts 228°
2026-04-21 23:02 31.73910 -95.46967 31615 ft 334 kts 228°
2026-04-21 23:03 31.72145 -95.48736 31368 ft 333 kts 228°
2026-04-21 23:03 31.70384 -95.50499 31148 ft 332 kts 228°
2026-04-21 23:03 31.68629 -95.52254 30928 ft 330 kts 228°
2026-04-21 23:03 31.66885 -95.53999 30697 ft 329 kts 227°
2026-04-21 23:04 31.65144 -95.55738 30479 ft 327 kts 227°
2026-04-21 23:04 31.63414 -95.57466 30251 ft 326 kts 227°
2026-04-21 23:04 31.61688 -95.59189 29982 ft 325 kts 227°
2026-04-21 23:04 31.59971 -95.60903 29750 ft 324 kts 227°
2026-04-21 23:05 31.58261 -95.62608 29490 ft 322 kts 227°
2026-04-21 23:05 31.56555 -95.64309 29238 ft 321 kts 227°
2026-04-21 23:05 31.54857 -95.66000 29009 ft 320 kts 227°
2026-04-21 23:05 31.53164 -95.67686 28773 ft 318 kts 227°
2026-04-21 23:06 31.51500 -95.69343 28549 ft 317 kts 227°
2026-04-21 23:06 31.49819 -95.71015 28331 ft 315 kts 227°
2026-04-21 23:06 31.48152 -95.72673 28097 ft 314 kts 227°
2026-04-21 23:06 31.46485 -95.74330 27888 ft 313 kts 227°
2026-04-21 23:07 31.44831 -95.75974 27659 ft 311 kts 227°
2026-04-21 23:07 31.43178 -95.77615 27433 ft 310 kts 226°
2026-04-21 23:07 31.41531 -95.79249 27220 ft 309 kts 226°
2026-04-21 23:07 31.39892 -95.80875 27017 ft 308 kts 226°
2026-04-21 23:08 31.38261 -95.82492 26833 ft 307 kts 226°
2026-04-21 23:08 31.36635 -95.84104 26664 ft 305 kts 226°
2026-04-21 23:08 31.35017 -95.85707 26501 ft 304 kts 226°
2026-04-21 23:08 31.33423 -95.87287 26311 ft 304 kts 226°
2026-04-21 23:09 31.31810 -95.88883 26150 ft 304 kts 226°
2026-04-21 23:09 31.30196 -95.90480 25924 ft 304 kts 226°
2026-04-21 23:09 31.28574 -95.92086 25687 ft 306 kts 226°
2026-04-21 23:09 31.26943 -95.93699 25457 ft 307 kts 225°
2026-04-21 23:10 31.25303 -95.95320 25133 ft 313 kts 225°
2026-04-21 23:10 31.23602 -95.97006 24730 ft 331 kts 225°
2026-04-21 23:10 31.21759 -95.98836 24271 ft 365 kts 224°
2026-04-21 23:10 31.19749 -96.00829 23707 ft 402 kts 224°
2026-04-21 23:11 31.17528 -96.03021 22977 ft 428 kts 223°
2026-04-21 23:11 31.15261 -96.05241 22378 ft 410 kts 223°
2026-04-21 23:11 31.13138 -96.07311 21774 ft 383 kts 223°
2026-04-21 23:11 31.11175 -96.09232 21502 ft 352 kts 224°
2026-04-21 23:12 31.09375 -96.10998 21330 ft 323 kts 224°
2026-04-21 23:12 31.07753 -96.12593 21151 ft 297 kts 224°
2026-04-21 23:12 31.06224 -96.14096 20890 ft 276 kts 225°
2026-04-21 23:12 31.04790 -96.15505 20449 ft 264 kts 225°
2026-04-21 23:13 31.03405 -96.16866 19886 ft 257 kts 225°
2026-04-21 23:13 31.02037 -96.18184 19297 ft 254 kts 218°
2026-04-21 23:13 31.00382 -96.18930 18678 ft 261 kts 189°
2026-04-21 23:13 30.98558 -96.18740 18016 ft 267 kts 165°
2026-04-21 23:14 30.96871 -96.17792 17294 ft 270 kts 155°
2026-04-21 23:14 30.95228 -96.16712 16584 ft 270 kts 154°
2026-04-21 23:14 30.93597 -96.15632 15920 ft 269 kts 154°
2026-04-21 23:14 30.91996 -96.14579 15309 ft 266 kts 155°
2026-04-21 23:15 30.90396 -96.13538 14720 ft 262 kts 155°
2026-04-21 23:15 30.88812 -96.12514 14139 ft 259 kts 155°
2026-04-21 23:15 30.87245 -96.11505 13497 ft 256 kts 155°
2026-04-21 23:15 30.85694 -96.10506 12865 ft 253 kts 155°
2026-04-21 23:16 30.84166 -96.09524 12295 ft 248 kts 155°
2026-04-21 23:16 30.82668 -96.08561 12108 ft 246 kts 155°
2026-04-21 23:16 30.81158 -96.07592 12000 ft 248 kts 155°
2026-04-21 23:16 30.79651 -96.06624 12005 ft 247 kts 155°
2026-04-21 23:17 30.78144 -96.05656 12015 ft 247 kts 155°
2026-04-21 23:17 30.76611 -96.04674 12044 ft 264 kts 155°
2026-04-21 23:17 30.74893 -96.03579 12067 ft 295 kts 154°
2026-04-21 23:17 30.73077 -96.02414 12025 ft 300 kts 154°
2026-04-21 23:18 30.71242 -96.01235 12006 ft 301 kts 154°
2026-04-21 23:18 30.69442 -96.00078 11860 ft 299 kts 154°
2026-04-21 23:18 30.67630 -95.98916 11593 ft 296 kts 154°
2026-04-21 23:18 30.65830 -95.97763 11230 ft 294 kts 154°
2026-04-21 23:19 30.64045 -95.96621 10852 ft 292 kts 154°
2026-04-21 23:19 30.62269 -95.95484 10506 ft 291 kts 154°
2026-04-21 23:19 30.60496 -95.94352 10221 ft 289 kts 154°
2026-04-21 23:19 30.58738 -95.93227 9986 ft 287 kts 154°
2026-04-21 23:20 30.56986 -95.92109 9702 ft 285 kts 155°
2026-04-21 23:20 30.55175 -95.91345 9688 ft 273 kts 170°
2026-04-21 23:20 30.53298 -95.90922 9670 ft 278 kts 174°
2026-04-21 23:20 30.51379 -95.90550 9675 ft 281 kts 174°
2026-04-21 23:21 30.49435 -95.90168 9670 ft 283 kts 173°
2026-04-21 23:21 30.47495 -95.89769 9665 ft 283 kts 173°
2026-04-21 23:21 30.45556 -95.89355 9655 ft 283 kts 173°
2026-04-21 23:21 30.43615 -95.88932 9629 ft 284 kts 172°
2026-04-21 23:22 30.41699 -95.88507 9606 ft 283 kts 172°
2026-04-21 23:22 30.39769 -95.88074 9590 ft 283 kts 172°
2026-04-21 23:22 30.37837 -95.87638 9573 ft 282 kts 172°
2026-04-21 23:22 30.35904 -95.87201 9556 ft 282 kts 172°
2026-04-21 23:23 30.33980 -95.86765 9564 ft 281 kts 172°
2026-04-21 23:23 30.32056 -95.86329 9566 ft 281 kts 172°
2026-04-21 23:23 30.30137 -95.85894 9571 ft 281 kts 172°
2026-04-21 23:23 30.28212 -95.85441 9446 ft 283 kts 168°
2026-04-21 23:24 30.26363 -95.84547 9100 ft 287 kts 154°
2026-04-21 23:24 30.24721 -95.83469 9076 ft 258 kts 153°
2026-04-21 23:24 30.23263 -95.82461 9080 ft 241 kts 152°
2026-04-21 23:24 30.21827 -95.81459 9123 ft 240 kts 152°
2026-04-21 23:25 30.20399 -95.80478 9085 ft 239 kts 154°
2026-04-21 23:25 30.18953 -95.79522 8681 ft 240 kts 154°
2026-04-21 23:25 30.17520 -95.78588 7902 ft 248 kts 154°
2026-04-21 23:25 30.15977 -95.77596 6961 ft 257 kts 154°
2026-04-21 23:26 30.14388 -95.76586 6032 ft 263 kts 154°
2026-04-21 23:26 30.12765 -95.75566 5082 ft 266 kts 154°
2026-04-21 23:26 30.11136 -95.74559 4145 ft 266 kts 154°
2026-04-21 23:26 30.09535 -95.73585 3628 ft 251 kts 154°
2026-04-21 23:27 30.08062 -95.72685 3367 ft 228 kts 154°
2026-04-21 23:27 30.06723 -95.71885 3115 ft 205 kts 154°
2026-04-21 23:27 30.05530 -95.71191 3031 ft 187 kts 154°
2026-04-21 23:27 30.04449 -95.70376 2972 ft 187 kts 132°
2026-04-21 23:28 30.03905 -95.69010 3011 ft 193 kts 112°
2026-04-21 23:28 30.03506 -95.67512 2985 ft 196 kts 112°
2026-04-21 23:28 30.03095 -95.66006 2999 ft 196 kts 112°
2026-04-21 23:28 30.02680 -95.64512 2980 ft 195 kts 112°
2026-04-21 23:29 30.02276 -95.63063 2979 ft 183 kts 112°
2026-04-21 23:29 30.01902 -95.61704 2976 ft 180 kts 112°
2026-04-21 23:29 30.01487 -95.60229 3014 ft 203 kts 112°
2026-04-21 23:29 30.01046 -95.58666 3002 ft 205 kts 112°
2026-04-21 23:30 30.00610 -95.57091 2982 ft 208 kts 112°
2026-04-21 23:30 30.00170 -95.55493 3002 ft 210 kts 112°
2026-04-21 23:30 29.99726 -95.53883 3003 ft 212 kts 112°
2026-04-21 23:30 29.99465 -95.52800 2982 ft 213 kts 105°
2026-04-21 23:31 29.99319 -95.51081 2760 ft 215 kts 95°
2026-04-21 23:31 29.99322 -95.49407 2502 ft 199 kts 94°
2026-04-21 23:31 29.99332 -95.47905 2241 ft 177 kts 95°
2026-04-21 23:31 29.99333 -95.46538 2020 ft 165 kts 94°
2026-04-21 23:32 29.99333 -95.45228 1788 ft 163 kts 94°
2026-04-21 23:32 29.99335 -95.43983 1565 ft 145 kts 94°
2026-04-21 23:32 29.99336 -95.42888 1381 ft 132 kts 94°
2026-04-21 23:32 29.99336 -95.41827 1234 ft 133 kts 94°
2026-04-21 23:33 29.99337 -95.40765 1036 ft 129 kts 94°
2026-04-21 23:33 29.99339 -95.39734 894 ft 128 kts 92°
2026-04-21 23:33 29.99338 -95.38674 728 ft 136 kts 92°
2026-04-21 23:33 29.99334 -95.37581 475 ft 134 kts 90°
2026-04-21 23:34 29.99336 -95.36531 319 ft 129 kts 90°
2026-04-21 23:34 29.99340 -95.35477 158 ft 131 kts 91°
2026-04-21 23:34 29.99342 -95.34522 106 ft 103 kts 90°
2026-04-21 23:34 29.99343 -95.33912 105 ft 49 kts 90°
2026-04-21 23:35 29.99342 -95.33570 108 ft 41 kts 90°
2026-04-21 23:35 29.99305 -95.33279 107 ft 37 kts 111°
2026-04-21 23:35 29.99252 -95.33167 107 ft 10 kts 126°
2026-04-21 23:35 29.99193 -95.33147 106 ft 12 kts 217°
2026-04-21 23:36 29.99175 -95.33288 106 ft 13 kts 273°
2026-04-21 23:36 29.99179 -95.33396 106 ft 14 kts 272°
2026-04-21 23:36 29.99180 -95.33517 106 ft 22 kts 269°
2026-04-21 23:36 29.99181 -95.33715 106 ft 25 kts 270°
2026-04-21 23:37 29.99179 -95.33917 106 ft 25 kts 269°
2026-04-21 23:37 29.99178 -95.34117 106 ft 25 kts 271°
2026-04-21 23:37 29.99179 -95.34344 107 ft 32 kts 269°
2026-04-21 23:37 29.99179 -95.34570 106 ft 27 kts 269°
2026-04-21 23:38 29.99178 -95.34785 107 ft 27 kts 270°
2026-04-21 23:38 29.99178 -95.35000 107 ft 27 kts 269°
2026-04-21 23:38 29.99177 -95.35218 107 ft 28 kts 269°
2026-04-21 23:38 29.99171 -95.35438 107 ft 20 kts 251°
2026-04-21 23:39 29.99060 -95.35483 107 ft 22 kts 180°
2026-04-21 23:39 29.98910 -95.35485 108 ft 22 kts 180°
2026-04-21 23:39 29.98747 -95.35425 107 ft 29 kts 152°
2026-04-21 23:39 29.98566 -95.35315 107 ft 29 kts 152°
2026-04-21 23:40 29.98384 -95.35204 106 ft 29 kts 152°
2026-04-21 23:40 29.98208 -95.35088 107 ft 29 kts 150°
2026-04-21 23:40 29.98028 -95.34975 107 ft 29 kts 152°
2026-04-21 23:40 29.97845 -95.34866 107 ft 29 kts 152°
2026-04-21 23:41 29.97725 -95.34781 107 ft 13 kts 124°
2026-04-21 23:41 29.97749 -95.34679 107 ft 14 kts 55°
2026-04-21 23:41 29.97762 -95.34579 106 ft 5 kts 114°
2026-04-21 23:41 29.97725 -95.34562 106 ft 6 kts 173°
2026-04-21 23:42 29.97691 -95.34556 107 ft 0 kts 172°
2026-04-21 23:42 29.97685 -95.34555 105 ft 0 kts 171°